sábado, maio 29, 2010

"Portugal é a etapa mais difícil", analisa Kimi.

0 comentários
Piloto da Citroën Jr., finlandês exalta complicação por conta de curvas e superfície

O finlandês Kimi Raikkonen, piloto da Citroën Jr. no WRC, disse que a etapa de Portugal está sendo mais difícil do que ele esperava.

O ex-piloto da Ferrari e campeão mundial em 2007 ocupa a nona colocação geral no evento, mas está quase a seis minutos do líder. Para ele, a dificuldade superou suas previsões.

"É muito mais difícil do que os outros. Há muitas curvas no topo da montanha e a superfície muda muito o nível de aderência. Foi o mais difícil do ano."

"Vim para cá com o objetivo de ganhar experiência e é o que estou fazendo. Não vamos correr grandes riscos, quero aprender", disse o finlandês.

Fonte: Tazio

Raly Portugal Resultados.

0 comentários
 Agradecimento VKR

SS13

1.1S. LOEB11:39.90.00.0
2.7S. OGIER11:41.9+2.0+2.0
3.3M. HIRVONEN11:45.7+3.8+5.8
4.11P. SOLBERG11:47.1+1.4+7.2
5.6H. SOLBERG11:51.7+4.6+11.8
6.2D. SORDO11:55.8+4.1+15.9
7.14K. AL QASSIMI12:09.1+13.3+29.2
8.5M. WILSON12:13.9+4.8+34.0
9.9F. VILLAGRA12:17.7+3.8+37.8
10.12M. OSTBERG12:27.6+9.9+47.7
11.31A. ARAÚJO12:33.0+5.4+53.1
12.25E. BRYNILDSEN12:37.1+4.1+57.2
13.40O. TANAK12:37.7+0.6+57.8
14.29J. KETOMAA12:43.5+5.8+1:03.6
15.8K. RAIKKONEN12:47.8+4.3+1:07.
SS12:

1.1S. LOEB16:29.20.00.0
2.7S. OGIER16:35.0+5.8+5.8
3.11P. SOLBERG16:45.6+10.6+16.4
4.3M. HIRVONEN16:48.6+3.0+19.4
5.6H. SOLBERG16:53.2+4.6+24.0
6.2D. SORDO16:58.8+5.6+29.6
7.5M. WILSON17:05.6+6.7+36.3
8.8K. RAIKKONEN17:14.4+8.8+45.2
9.12M. OSTBERG17:27.5+13.1+58.3
10.4J. LATVALA21:29.2+4:01.7+5:00.0
11.22N. AL ATTIYAH21:45.6+16.4+5:16.4
SS11:

1.7S. OGIER16:38.70.00.0
2.11P. SOLBERG16:41.2+2.5+2.5
3.2D. SORDO16:43.3+2.1+4.6
4.1S. LOEB16:44.7+1.4+6.0
5.3M. HIRVONEN16:50.7+6.0+12.0
6.6H. SOLBERG17:02.0+11.3+23.3
7.12M. OSTBERG17:07.0+5.0+28.3
8.5M. WILSON17:08.7+1.7+30.0
9.9F. VILLAGRA17:22.9+14.2+44.2
10.8K. RAIKKONEN17:23.4+0.5+44.7
11.4J. LATVALA21:38.7+4:15.3+5:00.0
SS 10

1.11P. SOLBERG11:43.40.00.0
2.2D. SORDO11:43.7+0.3+0.3
3.1S. LOEB11:44.6+0.9+1.2
4.7S. OGIER11:47.0+2.4+3.6
5.3M. HIRVONEN11:48.6+1.6+5.2
6.6H. SOLBERG11:54.7+6.1+11.3
7.12M. OSTBERG12:01.8+7.1+18.4
8.5M. WILSON12:07.1+5.3+23.7
9.9F. VILLAGRA12:16.3+9.2+32.9
10.8K. RAIKKONEN12:16.6+0.3+33.2
11.14K. AL QASSIMI12:17.5+0.9+34.1
12.15J. CUOQ12:30.6+13.1+47.2
(...)
SS9:

1.1S. LOEB16:31.20.00.0
2.11P. SOLBERG16:34.3+3.1+3.1
3.2D. SORDO16:39.3+5.0+8.1
4.7S. OGIER16:42.3+3.0+11.1
5.3M. HIRVONEN16:43.5+1.2+12.3
6.12M. OSTBERG17:01.1+17.6+29.9
7.6H. SOLBERG17:04.5+3.4+33.3
8.5M. WILSON17:13.1+8.5+41.8
9.9F. VILLAGRA17:13.10.0+41.8
10.8K. RAIKKONEN17:17.7+4.6+46.5
11.29J. KETOMAA17:19.8+2.1+48.6

SS8:

1.1S. LOEB16:40.40.00.0
2.4J. LATVALA16:43.2+2.8+2.8
3.3M. HIRVONEN16:43.6+0.4+3.2
4.11P. SOLBERG16:44.4+0.8+4.0
5.7S. OGIER16:48.8+4.4+8.4
6.2D. SORDO16:51.9+3.1+11.5
7.12M. OSTBERG17:08.1+16.1+27.6
8.6H. SOLBERG17:09.7+1.6+29.3
9.5M. WILSON17:12.5+2.8+32.1
10.8K. RAIKKONEN17:25.4+12.9+45.0
11.29J. KETOMAA17:26.5+1.1+46.1
12.62J. HANNINEN17:28.7+2.2+48.3
13.22N. AL ATTIYAH17:29.2+0.5+48.8
SS7:

1.29J. KETOMAA11:27.20.00.0
2.7S. OGIER12:05.5+38.3+38.3
3.1S. LOEB12:08.1+2.6+40.9
4.6H. SOLBERG12:15.9+7.8+48.7
5.3M. HIRVONEN12:16.3+0.4+49.1
6.4J. LATVALA12:19.3+3.0+52.1
7.2D. SORDO12:23.6+4.3+56.4
8.11P. SOLBERG12:24.5+0.9+57.3
9.5M. WILSON12:24.7+0.2+57.5
10.8K. RAIKKONEN12:36.3+11.6+1:09.1
SS6:

1.7S. OGIER13:03.80.00.0
2.2D. SORDO13:05.2+1.4+1.4
3.11P. SOLBERG13:05.6+0.4+1.8
4.1S. LOEB13:09.5+3.9+5.7
5.4J. LATVALA13:09.6+0.1+5.8
6.6H. SOLBERG13:10.4+0.8+6.6
7.3M. HIRVONEN13:13.9+3.5+10.1
8.5M. WILSON13:20.1+6.2+16.3
9.14K. AL QASSIMI13:25.4+5.3+21.6
10.8K. RAIKKONEN13:29.6+4.2+25.8
11.12M. OSTBERG13:30.5+0.9+26.7
12.9F. VILLAGRA13:34.8+4.3+31.0

SS5:

1.7S. OGIER13:54.90.00.0
2.2D. SORDO14:00.2+5.3+5.3
3.3M. HIRVONEN14:01.0+0.8+6.1
4.4J. LATVALA14:03.0+2.0+8.1
5.11P. SOLBERG14:03.3+0.3+8.4
6.1S. LOEB14:08.4+5.1+13.5
7.6H. SOLBERG14:12.5+4.1+17.6
8.12M. OSTBERG14:17.7+5.2+22.8
9.5M. WILSON14:21.7+4.0+26.8
10.8K. RAIKKONEN14:27.9+6.2+33.0
11.14K. AL QASSIMI14:34.8+6.9+39.9

Fonte: wrc.com

SS4

1.7S. OGIER12:06.30.00.0
2.2D. SORDO12:09.4+3.1+3.1
3.3M. HIRVONEN12:13.5+4.1+7.2
4.4J. LATVALA12:13.8+0.3+7.5
5.6H. SOLBERG12:14.3+0.5+8.0
6.1S. LOEB12:14.7+0.4+8.4
7.11P. SOLBERG12:16.4+1.7+10.1
8.5M. WILSON12:20.6+4.2+14.3
9.12M. OSTBERG12:27.2+6.6+20.9
10.9F. VILLAGRA12:41.3+14.1+35.0
11.62J. HANNINEN12:42.9+1.6+36.6
12.8K. RAIKKONEN12:44.6+1.7+38.3
13.22N. AL ATTIYAH12:47.3+2.7+41.0

Fonte: wrc.com
SS 3
1.7S. OGIER13:02.50.00.0
2.2D. SORDO13:03.2+0.7+0.7
3.11P. SOLBERG13:04.6+1.4+2.1
4.3M. HIRVONEN13:11.1+6.5+8.6
5.1S. LOEB13:12.7+1.6+10.2
6.6H. SOLBERG13:14.0+1.3+11.5
7.4J. LATVALA13:14.6+0.6+12.1
8.5M. WILSON13:21.2+6.6+18.7
9.12M. OSTBERG13:23.9+2.7+21.4
10.9F. VILLAGRA13:35.0+11.1+32.5
11.8K. RAIKKONEN13:37.0+2.0+34.


 SS2
Fonte: wrc.com

1.2D. SORDO14:09.30.00.0
2.7S. OGIER14:11.1+1.8+1.8
3.1S. LOEB14:15.0+3.9+5.7
4.3M. HIRVONEN14:16.2+1.2+6.9
5.11P. SOLBERG14:19.9+3.7+10.6
6.4J. LATVALA14:25.3+5.4+16.0
7.12M. OSTBERG14:25.8+0.5+16.5
8.5M. WILSON14:30.2+4.4+20.9
9.6H. SOLBERG14:37.8+7.6+28.5
10.8K. RAIKKONEN14:46.1+8.3+36.8
11.62J. HANNINEN14:51.9+5.8+42.6


 SS1

1.3M. HIRVONEN2:09.30.00.0
2.9F. VILLAGRA2:09.4+0.9+0.9
3.11P. SOLBERG2:10.0+0.6+0.7
4.2D. SORDO2:10.1+0.1+0.8
5.6H. SOLBERG2:10.2+0.1+0.9
6.7S. OGIER2:10.3+0.1+1.0
7.5M. WILSON2:10.5+0.2+1.2
8.1S. LOEB2:10.8+0.3+1.5
9.8K. RAIKKONEN2:11.0+0.2+1.7
10.43K. BLOCK2:11.00.0+1.7
11.4J. LATVALA2:11.6+0.6+2.3

Ferrari 800GPs.

0 comentários
Raikkonen: Três anos inesquecíveis na Ferrari


Como a Ferrari está celebrando seu 800 GP alguns dos drivers passado tiveram uma palavra a dizer ... aqui está o Kimi tinha a dizer ....."Eu nunca vou esquecer os três anos que passei na Ferrari. Ao volante de um carro de Maranello, consegui realizar o meu sonho como um driver, que era ganhar o Mundial de Fórmula 1 Campeonato, mas não é só por causa da resultados que eu nunca vou esquecer essa experiência.

Foi um momento muito intenso, uma mistura de felicidade indescritível e alguns momentos difíceis: Por tudo isso, estávamos sempre unidos, como convém a uma verdadeira equipa.Levei nove vitórias com a Ferrari, e três deles se destacam.

A primeira foi em Melbourne, em 2007, porque eu não poderia pedir mais do que começar minha carreira com os Reds dessa maneira. Então lá foi a última em Spa no ano passado, pois ganhar em tais circunstâncias, com um carro que não era tão bom quanto o da oposição, foi um impulsionador de moral real para a equipe, que estava passando por um momento particularmente complicado.

Em seguida, houve a vitória em São Paulo, que me trouxe o título mundial e não por outras palavras são necessárias para explicar que a raça é especial para mim.Meu caráter e como eu me expressar é muito diferente do estilo italiano, mas isso não nos impede de compreender o outro e as emoções que compartilhamos.

Eu dei o meu máximo de esforço ao longo destes três anos e eu tenho muito em troca e mesmo se, no final, nós fomos nossas maneiras separadas, eu sempre tenho algumas memórias muito bom. "

Fonte:Kimi Raikonen Space
Que bom que ele tem boas recordações da Ferrari,apesar do quebra de contrato da equipe com ele eu também vivir momentos maravilhosos com o kimi na Ferrari
Beijos
Rose

Ogier o mais rápido no Shakedown Rally Portugal.

0 comentários

Uma das estrelas deste ano do Rali da Nova Zelândia, Sebastien Ogier foi o piloto mais rápido no shakedown pré-evento para a Vodafone Rally de Portugal mais cedo hoje, com o ex-campeão mundial de rali Petter Solberg seu rival mais próximo.

O ensaio de quatro horas - um prelúdio para a reunião deste fim de semana - ocorreu em uma estrada de 5,03 km de cascalho em Vale de Judeu, a 12 km do principal serviço de parque perto de Faro. O mesmo pedaço de estrada era utilizada para Shakedown em 2009. Condições meteorológicas foram seco e ensolarado em todo, com temperatura chegando a 23 graus Celsius.

"Eu sei Shakedown não é importante para o rali real, mas é bom para a confiança para ser mais rápido e temos muita confiança agora", disse Ogier. "Eu achei o carro muito bom, como usual, e embora nós tentamos um par de diferentes set-ups que acabei furando com o nosso habitual - não há nada de novo. A estrada estava escorregadia e limpeza de um lote, mais do que o adequado etapas que eu penso. Eu tinha 16 segundos mais rápido que no meu quarto passar em relação ao meu primeiro - que é mais de três segundos por quilómetro - assim você pode ver o efeito. "

Fellow Citroen C4 WRC driver Petter Solberg foi o mais próximo ao tempo Ogier, parando o relógio 1.3sec mais tarde, enquanto líder da equipe Citroen, Sebastien Loeb foi o terceiro. "É uma fase desafiadora, talvez o mais difícil do rali!" , disse Loeb, "A superfície é solto e abrasivos, como os estágios reais, mas a estrada é muito rápido e estreito. Tentámos uma suspensão de alguns ajustes, mas nada grave. Tudo estava bem."

1. Ogier. Citroen C4 WRC. 3:05.0

2. P. SOLBERG. Citroen C4 WRC. 3:06.3

3. LOEB. Citroen C4 WRC. 3:07.3

4. Sordo. Citroen C4 WRC. 3:07.9

5. Hirvonen. Ford Focus RS WRC 09. 3:08.0

6. Latvala. Ford Focus RS WRC 09. 3:08.4

7. H. SOLBERG. Ford Focus RS WRC 08. 3:09.2

8. Raikkonen. Citroen C4 WRC. 3:10.0

9. VILLAGRA. Ford Focus RS WRC 08. 3:11.1

10. WILSON. Ford Focus RS WRC 08. 3:12.1

11. Al Qassimi. Ford Focus RS WRC 09. 3:12.2

12. BLOCK. Ford Focus RS WRC 08. 3:15.7

Rally Portugal Segundo Dia.

0 comentários


O francês Sébastien Ogier continua a liderar o Rali de Portugal após o segundo dia de competição no Algarve. Sébastien Loeb subiu para segundo e Petter Solberg avançou para a posição do pódio na penúltima etapa.

O segundo dia levou a tripulação a norte de Faro por mais seis etapas e 135,10 km competitivos, o dia mais longo do rali. A luta no topo do ranking foi intenso durante todo o dia, com nada menos que quatro pilotos disputando o pódio atrás Ogier. O líder da noite para o dia teve um início lento, deixando Loeb e Petter Solberg a ter honras palco, mas pelo serviço de meio-dia sua liderança 22,9 segundo foi ainda largamente incontestado. Esta tarde Ogier venceu apenas uma etapa, mas dormidas 21,1 segundo à frente do pelotão perseguidor.

Loeb e Dani Sordo estavam lutando por outro lado, a negociação companheiros de equipa a posição durante todo o dia até Sordo caiu para quarto. Da mesma forma, Solberg foi terceiro em vying para um close-batalha travada no topo do ranking. Ele perdeu tempo com um par de punções e 52,2 segundos atrás do líder. Mikko Hirvonen, quinta de noite, é ainda mais à deriva, mas o finlandês será um desafio para uma posição no pódio mais cinco etapas do encerramento, no domingo. Henning Solberg rodadas fora dos seis primeiros.

A reforma só líder do dia foi a de Jari-Matti Latvala. O finlandês rodou na fase nove, acertando a traseira do carro em uma árvore e danificando a roda. Ainda não se sabe se ele será capaz de reiniciar no domingo.


Rally de Portugal - Resultados após 2 º dia

1. S Ogier / J Ingrassia FRA Citroen C4 2hr 50min 48.1sec

2. S Loeb / D Elena FRA Citroen C4 2hr 51min 09.2sec

3. Solberg / P Mills P NOR Citroen C4 2hr 51min 40.3sec

4. D Sordo / M Marti ESP Citroen C4 2hr 51min 53.8sec

5. M Hirvonen / J Lehtinen FIN Ford Focus RS 2hr 52min 02.0sec

6. H Solberg / I menor e Ford Focus RS 2hr 53min 50.9sec

7. Wilson M / S Martin GBR Ford Focus RS 2hr 55min 29.9sec

8. Ostberg M / J Andersson NOR Subaru Impreza 2hr 56min 24.8sec

9. Räikkönen K / K Citroen C4 FIN Lindström 2hr 58min 17.8sec

10 = F Villagra / J Perez Companc ARG Ford Focus RS 2hr 58min 43.2sec

10 = K Al Qassimi / M Orr UAE Ford Focus RS 2hr 58min 43.2sec
 
Fonte.Rally buzz
Beijos
Rose 

Rally Dia de Portugal 1.

0 comentários
Escrito por Chris Harrold Últimas Notícias, WRC 29 mai 2010

Sébastien Ogier tomou a vantagem no Rally de Portugal, o jovem piloto da equipa Citroën Junior tirando uma vantagem 26,6 segundo sobre o espanhol Dani Sordo. Terceira posição é mantida pelo Campeão do Mundo Sébastien Loeb.

O Rally de Portugal, a sexta ronda do FIA World Rally Championship, baseia-se em Faro e que o concurso decorre nas colinas acima da cidade algarvia. Mistura-se rapidamente abre estradas com troços mais técnicos e lutou ao longo de duras e abrasivas trilhas de cascalho.


Após a última noite de abertura do Super Especial no Estádio Algarve, em que Mikko Hirvonen na Ford, venceu, a ação levou a tripulação a noroeste de Faro por seis estágios de cascalho. Sordo reivindicou a vitória na primeira etapa para assumir a liderança geral, porém pela terceira fase do dia em que foi Ogier que afiou antes. Os rivais têm, porém, foi acompanhado de perto durante todo o dia e Ogier apenas ampliou sua vantagem quando ultrapassado Sordo uma junção na fase final.

Loeb sofreu durante a manhã primeira corrida na estrada, mas o francês subiu de ontem à noite oitavo-terceiro esta noite. A batalha pela posição, todavia, foi intenso, com Mikko Hirvonen e Petter Solberg também na mistura, a par terminando em quarto e quinto, respectivamente, após Solberg teve um problema de pneu na fase final. Jari-Matti Latvala mantém a sexta posição.

Rally de Portugal - Resultados após o dia 1

1. S Ogier / J Ingrassa Citroen C4 1h20m34.4s FRA

2. D Sordo / M Marti ESP Citroen C4 26.6s

3. S Loeb / D Elena FRA Citroen C4 44.8s

4. M Hirvonen / J Lehtinen FIN Ford Focus RS 46,9

5. Solberg / P Mills P NOR Citreon C4 49.9s

6. Latvala J M-M / Anttila FIN 1m02.8s Ford Focus RS

7. 1m20.7s H Solberg / I menor e Ford Focus RS

8. Wilson M / S Martin GBR 1m54.6s Ford Focus RS

9. Ostberg M / J Andersson NOR 2m37.3s Subaru Impreza

10. Räikkönen K / K Citroen C4 FIN Lindström 3m18.1s
Rally Buzz 
Beijos Rose.

Kimi: Resultados não é tudo.

0 comentários


Fonte: Autosport.com

Red Bull World Rally Championship driver Kimi Raikkonen admitiu que o seu resultado a partir desta semana Rally de Portugal não é importante para ele, pois ele está mais interessado em chegar ao final do evento Faro-based.


Raikkonen perdeu na última rodada do campeonato na Nova Zelândia, mas agora vai disputar cada rally até o final da temporada. O rali só se ele tem alguma experiência anterior é o seu evento em casa, Rali da Finlândia.

"É justo dizer que tudo é completamente nova para mim", disse o ex-campeão mundial de Fórmula 1. "Eu tenho testado na França, mas não é o mesmo que estar na competição.


"Os outros pilotos foram para a Nova Zelândia - que não estava no meu programa - e eles também sabem o Rally de Portugal bem, por isso não vai ser fácil para nós. Isso não me incomoda, porém, como eu sou aqui para aprender mais do que qualquer outra coisa.

"O resultado final no final do rali, não me importa realmente: é toda sobre a quantidade de informação que eu posso tirar para o futuro. Somos apenas continuar o nosso passo a passo de melhoria."

Raikkonen recebeu seu melhor resultado de sempre no Rally da Turquia no mês passado, quando terminou em quinto no seu Citroen Junior Team C4 WRC.
Boa Sorte Kimi.
Beijos
Rose!

Raikkonen e Ogier Pronto para Portugal .

0 comentários

Kimi participa de teste na  França
Fonte: RallyBuzz.com
Pleinecorde.free.fr


Após a longa viagem para a Nova Zelândia, o World Rally Championship volta ao solo europeu neste fim de semana. O Rallye de Portugal, ronda seis da temporada, será uma excelente oportunidade para Sébastien Ogier e Julien Ingrassia para sublinhar as suas recentes atuações. Kimi Räikkönen e Kaj Lindström não fez nenhureunião há um mês, mas eles pretendem continuar o seu progresso com o Citroen C4 WRC.

Sébastien Ogier e Julien Ingrassia estão continuando a sua marcha em direção ao nível mais alto dos ralis mundiais. O duo alcançou o segundo passo do pódio pela primeira vez em 2009 o Rali da Acrópole, e obteve um resultado semelhante na Nova Zelândia, há duas semanas. "Nosso programa inicial não chegou a ir até esta rodada", disse Sébastien. "Eu tenho que agradecer toda a equipe para torná-lo possível para nós entrar na Nova Zelândia - especialmente porque nós obtivemos um resultado que não superou as expectativas. É um bom sinal para o futuro; que me senti confiante desde o início da temporada e ficou mais rápido e mais rápido. Para a nossa primeira viagem para a Nova Zelândia era um excelente desempenho, e nós apreciamos realmente dirigindo o Citroën C4 WRC nas fases. "

A Citroën Junior Team inicia o driver Rallye de Portugal situada em quarto lugar no Campeonato do Mundo e os seus objectivos se mantêm inalterados. "Nós estamos indo para ficar com o mesmo plano que nós tivemos desde o início da temporada", acrescentou o Sébastien. "Mesmo que este é um rali que conheço um pouco sobre o já, precisamos ter certeza de que não existem erros em Portugal e que acumulam os quilômetros. Será uma grande conquista, se pudermos lutar por um pódio novamente. A partir do primeiro dia em quarto, com a estrada deve ser uma posição muito boa para nós. "

A Nova Zelândia não fazia parte do programa agendado para Kimi Räikkönen e Kaj Lindström, que retornar ao Citroën C4 WRC em Portugal. O antigo Campeão do Mundo de F1 vai continuar aprendendo a dirigir um challenger WRC em pisos de terra ao longo das etapas exigentes Português. Tendo aposentados, no México, terminou em oitavo lugar na Jordânia, e afirmou quinta, na Turquia, o finlandês de 30 anos de idade terão de se familiarizar com outro evento novo para ele em Portugal, uma das etapas clássicas do World Rally Championship.

"A pequena pausa me fez muito bem", disse Kimi. "Fomos capazes de sentar e analisar o nosso início de temporada, concentrando em detalhes específicos, tais como fazer anotações ritmo e comparar o nosso tempo aos dos pioneiros. A poucos quilómetros de testes também significava que eu era capaz de rapidamente voltar até a velocidade do carro. Eu sei que ainda temos muito a aprender, porque continua a ser um rali completamente novo esporte para mim, mas eu sinto que estamos a fazer progressos consistentes ".
Em Portugal, o seu quinto evento ao volante do Citroën C4 WRC, Kimi Räikkönen também está mantendo os mesmos objectivos. "Eu disse desde o início que era só uma questão de aprendizado", ressaltou. "Nós precisamos de ter tudo na mão antes de tentar acelerar e perseguir os líderes. Por isso, é necessário para nós para obter mais experiência e muito mais. Isso vai ser o nosso objectivo em Portugal mais uma vez. "

A fim de preparar a quinta ronda da temporada, ambos os pilotos participaram de uma sessão de testes de cascalho no leste da França no final desta semana.


Três perguntas para ... Benoit Nogier Citroën Junior Team Manager

Vamos olhar para trás, a viagem à Nova Zelândia ... acrescentando a este evento para programar Sébastien Ogier certamente funcionou bem!
"A Nova Zelândia foi uma grande experiência para toda a equipe. Mais uma vez, Sébastien estava extremamente feliz com o carro. Ele pressionou do início ao fim, não se esqueça, sem que ninguém a todos dizendo o que fazer. Ele estava sempre fora plano, e espero que ele mantenha esse sentimento dentro dele. É a primeira vez que ele foi obrigado a empurrar a dura todo o caminho até o acabamento. Ele precisa se lembrar que toda experiência, a fim de fazê-lo novamente no futuro! "

Desde o início da temporada, nenhum dos Citroën Junior Team C4 WRC tiveram problemas mecânicos. Isso deve ser uma enorme fonte de satisfação para um gerente de equipe?

"É apenas para baixo ao trabalho duro de toda a equipe durante vários meses. Citroën Racing, escritório de design tem produzido os melhores World Rally Car e estamos fazendo tudo que podemos fazer mais do mesmo. Das pessoas que preparam o pacote de peças de reposição para os engenheiros que analisam os dados durante o debriefs, é um trabalho a longo prazo que nos tem permitido desfrutar deste alto grau de confiabilidade. Tomamos uma quantidade enorme de cuidado quando se trata da preparação dos nossos dois carros e os nossos pilotos se beneficiar disso. Este rigor e disciplina nas nossas práticas de trabalho significa que estamos lá em cima e conseguimos marcar o tipo de resultados que toda a gente tem visto até agora este ano. "


Agora, a temporada continua em Portugal: um evento que Sébastien Ogier já sabe, mas outra marca um novo artigo para Kimi Räikkönen. Não alterar os objectivos de todo?

"Target Kimi é continuar o trabalho que começou desde o início da temporada: nada mais, nada menos. Ele irá, sem dúvida, enfrentar uma tarefa mais difícil do que ele fez na Turquia, como todos os motoristas já conhecem Portugal considerando que ele tem ainda de aprender. Ele é muito consciente de que há um longo caminho pela frente, mas junto com Kaj ele está adotando uma abordagem extremamente profissional. Ele precisa continuar no mesmo quadro de espírito calmo, mesmo que isso irá inevitavelmente levar algum tempo. Quanto a Sébastien, ele também precisa de permanecer na pista e ficar calmo. Apesar de seus resultados recentes, ele certamente nunca deixou o sucesso subir à cabeça e que é uma atitude fundamental que devemos preservar. É importante manter uma visão clara sobre tudo e enquanto Sébastien ainda tem muito o que aprender, ele aparentemente não ser muito presunçoso para procurar um pódio em Portugal. Seu objetivo no início do rally será a luta com os quatro pilotos de fábrica. Estamos claramente um pouco adiante do plano que estabelecemos no início do ano, mas a missão não é de forma completamente realizado. Sébastien precisa chegar ao final de uma reunião agora sem erros ".

Já estava com soldades ...Que bom que !!o proximo ralli está chegando.
beijosssss
Rose

quarta-feira, maio 19, 2010

Parabéns

4 comentários
Oiiii
Gente Venho Hoje Desejar um Feliz Aniversário para a Lela!!!


Amiga você já vem a anos sendo uma pessoa muito querida não só comigo mas com as meninas também, te desejo tudo de bom neste dia!!!



Um milhão de Abraços e Beijos 

terça-feira, maio 18, 2010

Kimi comprou uma égua

0 comentários
De acordo com o site finlandês Ravit, Kimi é agora um proprietário de uma égua. Na Suécia, o treinador de cavalos Veijo Heiskanen disse que Raikkonen comprou uma parte da Oma Y,que
já competiu 18 vezes em sua carreira, ganhando quatro vezes e conquistou um total de 441 000 coroas.

- Estamos familiarizados com Kimi, diz Heiskanen ao site Travronden.se.

A égua tem 6 anos de idade.

Mais fotinhas do Kimi "na night" de Mônaco!

0 comentários
http://3.bp.blogspot.com/_kbzv9bJyPP0/S_LTYUWdQ5I/AAAAAAAALMU/GS4UEJo8ZiQ/s1600/normal_2%7E2.png.jpg http://3.bp.blogspot.com/_kbzv9bJyPP0/S_LTYiXQ5GI/AAAAAAAALMc/yTwDDQsT2hM/s1600/normal_r.png.jpg

Agradecimentos: The Iceman Brasil

Raikkonen no Rally della Lanterna

0 comentários
O finlandês Kimi Raikkonen, juntamente com Sebastien Ogier, pilotos da Citroen Junior Team irão participar do Rally della Lanterna na Itália entre os dias 12 e 13 de junho válido pelo Trofeo Asfalto.

A clamorosa presença servirá também como treinamento no asfalto para o Rally da Bulgaria 7ª etapa do Mundial de Rally que será disputado neste mesmo tipo de superfície no início de julho – e tornou possível graças ao empenho dos apaixonados organizadores do LanternaRally e da estação de Radio local Primocanale que faz da corrida genovesa absolutamente extraordinária considerando que no seu âmbito estará também o primeiro Memorial Luigi Tabaton em homenagem ao pioneiro do Rali italiano, falecido a dois anos atrás e que trará o desafio no Palasport de Gênova seis grandes pilotos de rali: Marku Allen, Juha Kankkunen, Miki Biasion, Didier Auriol, Dario Cerrato e Fabrizio Tabaton.O Memorial Tabaton terá seu primeiro estágio no Palasport, realizado sexta-feira à noite.Todo o restante do Rali será disputado no sábado dia 12 das 7:50 as 19:55 num total de 8 especiais.
Fonte: Autosprint|Grazie TaniaS| Tradução adaptada: The Iceman Brasil - do team

segunda-feira, maio 17, 2010

Olá!!

3 comentários
Oii Meninas!

Passando aqui para deixar um beijinho e agradecer a vocês por essas lindas palavras!
Infelizmente o Kimi bebeu demais e eu tive que levá-lo para os fundos da casa, mas fique tranquila Jenni, eu não fiz mal a ele (Hehehehe) ! Raikkonicas, eu queria muito que vocês estivessem aqui na minha festa! Foi muiito boa! Cheia de celebridades, xD.

Beijinho Meninas!! Vcs são umas fofas! Adoro vcs! ♥

________
Carol

Para o Baby do Raikkonicas...

3 comentários
Carolzitah tu sabe como a Jennie é muito ciumenta com relação ao Kimi, quando o Kimi está em casa.
Sei que em março vocês conversaram muito por email e a Jennie deu um jeito de apagar todos os emails que tu tinha enviado para o Kimi, como faz um tempo que eu e o Kimi só conversamos por msn, ele me enviou um email te parabenizando, é claro que ele nunca iria esquecer o teu aniversário. Bom vou colocar aqui o que ele mandou.


De: Kimi Matias Raikkonen [mailto:kimiraikkonen@gmail.com]
Enviada em: segunda-feira, 17 de maio de 2010 03:11
Para: Yasmin da Costa de Farias
Assunto: s2 ~ Aniversário da Carol ~ s2





Querida Carol,



Sei que hoje é seu aniversário e infelizmente não poderei estar ai, o que realmente me deixa muito chateado.
Queria poder compartilhar com você tudo que há de bom no dia de hoje.
Também sinto falta de estar em seus fim de semana nem que seja através da tela da televisão.
Com o Rally eu me sinto totalmente renovado, mas gostaria que as emissoras de televisão brasileiras mostrassem o Rally para saber que você está me assistindo.
A Jennie andou bagunçando o meu email e acabei perdendo parte da minha lista de contatos, se você puder entrar no msn mais seguido, poderíamos conversar mais, agradeço à Deus que a Jennie não sabe usar o msn.

Ah, quando eu puder voltar ao Brasil pretendo levar o Ajax para fazer uma visita a você, não esqueci do seu presente, só não sei qual escolher, você prefere uma camiseta personalizada do Corinthians ou um CD do Green Day autografado por eles?
Quando você decidir me manda um email ou fala com a Myn.
Parabéns querida!!!!
Tudo o que de bom para você hoje, eu lhe desejo de todo o coração
Não importa onde eu estiver, sempre lembrarei de você. 

Myn, Rose, Flavia e Mimi não esqueci de vocês.
Espero que estejam todas bem sinto falta de todas.



Beijos
Iceman



Muito fofo da parte do Kimi ter lembrado de você amiga!
Um mega beijokaaaaaa muitas felicidades Carolzitah, e como o Kimi mesmo escreveu, e as gurias sempre lembraremos de você, você é a nossa Baby!!!!




Bjos Myn

Parabéns!!!

3 comentários




É hoje!!!!!!!
´
Happy Birthday to you

On this cherished date

Lots of happiness

Many years of life
 
 
Hoje é o aniversário da nossa Carozinha!
 
 
 
Oba!!!Vai ter festa , muito som legal, vocês estão convidados!!!
 
Amiga!
 
Hoje essa mensagem que nós Raikkonicas mandamos pra você tem que ser especial. Afinal, hoje é o seu aniversário.



Parabéns!


Que Deus continue protegendo esta pessoa especial que é você. Esta pessoa querida , suave e que faz com que eu me sinta tão bem nos momentos que desfrutamos juntas seja no msn ou no blog. Às vezes, sinto até a sentir orgulho de poder fazer parte dessa nossa amizade infelizmente é virtual mas apesar de não te conhecer pessoalmente eu te adimiro muito. Afinal, não é sempre que encontramos alguém assim, tão alegre e de bem com a vida.


Parabéns! Felicidade!


Conte com as Raikkonicas. Não só nos momentos felizes, mas principalmente nos momentos difíceis.


Sabe, pode ter certeza: Nós vamos sempre estar aqui, de braços abertos pra quando vc precisar.


Parabéns, amiga!


O que vai ter na Festa além das presenças de comfirmadas?

Bolo!!!


Comidas com frangos


 
 
Bebidas sem alcool
 
 



Bebidas com alccol vai ficar por conta do kimi

 
 
Beijossssssss
Raikkonicas!!

domingo, maio 16, 2010

Quero bolo!!!

3 comentários
Oi turma!!!
Amanhã dia 17 é o niver da  fã Baybe de kimi raikonen e acima de tudo nossa querida amiga Carol.
Segui aqui algumas presença já confirmada para a festa.















Beijos
Raikkonicas!

Vitórias devem garantir renovação de Mark Webber com a Red Bull

0 comentários
Fonte: Uol Esporte




As duas vitórias consecutivas de ponta a ponta na Espanha e em Mônaco devem garantir a renovação de contrato do australiano Mark Webber com a Red Bull. No final de semana em que o piloto pulou para a ponta da tabela, Christian Horner disse que pretende mantê-lo para 2011. O contrato de Webber termina no fim deste ano.



O desempenho do RB6 faz com que o assento na Red Bull seja um dos mais cobiçados entre os pilotos, mas o chefe da equipe já dá pistas de que Webber deve continuar ao lado de Sebastian Vettel na próxima temporada.



“Estou muito contente com o equilíbrio e a dinâmica dentro da equipe, e não há nada que queremos mudar”, disse Horner ao site da revista inglesa Autosport.



Apesar de o próprio Webber dizer em Mônaco que não tem pressa para resolver o assunto, uma vez que seu desempenho o torna um alvo dos rivais da Red Bull, Horner disse que não espera por uma negociação demorada.



“Ele está pilotando fantasticamente bem, e é um integrante importante do time. Então, quando chegar a hora de sentar e falar sobre o contrato, tenho certeza que será uma conversa rápida”, disse Horner.



O chefe da Red Bull espera que o assunto seja resolvido nas próximas semanas. “Nos últimos anos, começamos a conversar sobre isso entre o fim de maio e o início de junho. Mas com Mark, como sempre, a coisa é bem objetiva”, finalizou Horner.



Segundo a Autosport, a renovação de Webber significaria o fim da carreira de Kimi Räikkönen na Fórmula 1. A revista entende que a Red Bull seria a única opção para um possível retorno do finlandês, que atualmente compete no Mundial de rali.

Kimi em Mônaco!

0 comentários
Kimi está em Mônaco! O Finlandês acompanhou os treinos livres do GP. Ele chegou lá em seu luxuoso iate Sunseeker Predator de 33 metros.

Fotos:

 
__________________
Kimi aparece fumando na última foto! :'(

Raikkonen é agora um orgulhoso proprietário de uma KTM 250 SX-F.

0 comentários


Kimi (Iceman) Raikkonen não é um estranho para a excitação da mais alta tecnologia de máquinas motorizadas pela emoção e o sucesso nos circuitos de mundo de corrida de elite. O campeão mundial de F1 de 2007 e atual piloto da WRC adicionou outra máquina para sua coleção. Raikkonen é proprietário de uma KTM 250 SX-F, então ele pode olhar para a frente para alguma ação "off-road" no futuro (como a 16° edição do Erzberg Rodeo). Kimi, que certamente compartilha da filosofia da KTM “Prontos para a Corrida”, é com certeza muito bem vindo na internacional "Orange Family" (família laranja).

Agradecimentos: miezicat

KIMI precisava de confiança

0 comentários
Andrea Stella trabalhou com Michael Schumacher, depois com Kimi e agora com Alonso.

- Kimi quis tão pouca informação quanto foi possível. Ele apenas quis ouvir o essencial e no estilo tinha que ser simples. Você não pode misturá-lo com qualquer sentimento, disse Stella em intrevista a revista El Pais.

- Schumacher novamente amava analisar tudo. Ele queria saber por que algo tinha que acontecer ou o que estava atrás de um erro.

- Eu tinha que transmitir confiança para Kimi: o sentimento que eu confiei a ele completamente.

- No meu trabalho eu tento oferecer ao piloto a melhor possibilidade para trazer suas habilidades.

Os melhores profissionais não são sempre os colegas mais grato.

- Cale-se, eu não quero ouvir nada sobre isso, Alonso gritava na frente de toda a audiência de tv, quando Stella lhe avisou que Lewis Hamilton estava cada vez mais próximo no GP da Austrália.

Kimi Raikkonen na 16° edição do Erzberg?

0 comentários
Acreditar ou não?

De acordo com o site enduro.blog.de , Kimi participará da 16° edição do Erzberg Rodeo na Austria em 5 de Junho de 2010. O site faz uma pequena comparação entre Kimi e o piloto atualmente mais bem sucedido no enduro Taddy Blazusiak.

O Kimi Räikkönen investidor

0 comentários
-  Aika paljon erilaisiin kämppiin. Ei ole oikeastaan muuta, Räikkönen kertoo Talouselämässä.


Kimi Räikkönen revelou em entrevista a revista Talouselämä-magazine como ele investe todos os seus milhões que ele consegue dirigindo.

- Muito em diferentes casas. Realmente em nada mais, disse Kimi.

O que o salário significa pra você:

- Claro que interessa. De repente você pode se ferir no esporte e isso que é em seguida.
Alguém pode dizer que não faz sentido que alguém fique tão bem pago. Ainda não existem muitos na F1 que possam ganhar corridas.

Räikkönen contou que seus gestores tomam conta de seu dinheiro. Ele não segue o estoque do mercado.

Ele não falou muito sobre o seu futuro. De acordo com Räikkönen ele tem algum negócio em planos mas ele não quer falar mais sobre ele.

Quando perguntado qual tipo de negócio que ele está interessado, ele respondeu:

- Todo tipo. Você tem ainda muitas sugestões diferentes. Eu não posso seguir com ele se as sugestões não tem qualquer sentido.

Tradução By Me

Mais um comercial da DNA - 'Respostas Curtas'

0 comentários
 


1. pergunta:
"Kimi, você está se sentindo bem com mudança de esporte?
K: "Sim!"
2. pergunta:
"você quer dizer algo mais?"
- "Não!"
3. pergunta (em ingles):
"Kimi, você tem esperanças para sua carreira no rali?"
K: "aah sim!"
4. pergunta (em ingles):
"Kimi, você pode descrever como se sente dirigindo na areia e neve?"
- "...não. Obrigado!"
e no telefone:
"Oi como vai? ... hehehehe... muito bem, você está aqui perto?"

Tradução e Agradecimentos: Joni & The Iceman Brasil

Tradução da entrevista para YLE

0 comentários
Entrevista para tv finlandesa YLE. Para conferir ao vídeo clique aqui ou vá ao post abaixo.

Kimi, nós nos conhecemos já faz um certo tempo na piscina do campeão Mika Immonen e descobrimos que ele também é chamado de Iceman.

Então eles entrevistaram Mika Immonen:

A Finlândia também conhece um outro Iceman, Kimi Raikkonen. Qual deles foi o primeiro Iceman? Mika diz que sendo mais velho que o Kimi, é o primeiro Iceman etc. etc.

Kimi: Isso é verdade, nós conversamos sobre isso algumas vezes quando nós competimos na piscina, então eu dei o título para o Mika Immonen, sem problemas.

Qual é o seu filme favorito?

Filme favorito, ha ha. Eu assisto muito filmes finlandeses, mas eu não conssigo dizer qual deles seria o melhor de todos outros, mas todos os novos filmes finlandeses são interessantes, mas é claro que tem vários filmes estrangeiros também, normalmente eu assisto alguns filmes durante os longos vôos, mas não tenho preferência por nenhum.

O que você acha do novo álbum dos Gun’s and Roses – o Chinese Democracy – você o escutou?

Sim, tenho o escutei muito. Nós temos o usado quando fazemos alguns certos trechos no Rally. Eu não sei, eu gosto, mas obviamente cada um gosta de coisas diferentes.

O que fez Axl Rose pensar nisso, eu refiro isso por ele ter creditado seu nome no álbum dele, qual é a história por trás disso?

Bem, eu não sei se existe alguma grande história por trás disso, nós nos conhecemos e ‘fizemos hora’, e nos falamos ao telefone, assim nós nos aproximamos por todos os tipos de coisas, talvez exista alguma verdade nisso. É sempre divertido quando nos encontramos.

O Gun’s and Roses esta vindo para a Finlândia nesse verão, você pode estar esperando alguns visitantes na sua casa de campo?

Eu estou certo de que vamos nos encontrar e fazer algumas coisas, mas vai depender de quanto ocupados nós estaremos, mas nós vamos ver isso com o tempo.

O publico da F1 sempre vê um monte de boatos. Será que você pode iluminar um pouco esse mundo, e por que existem tantos boatos ao seu redor?

Eu acho que isso vem rapidamente dos repórteres. Todo mundo quer escrever histórias e eles entrevistam várias pessoas nas quais dizem certas coisas erradas intencionalmente e outras dizem coisa corretas. Então, todos querem fazer as suas próprias historias, eles sempre existiram e sempre vai ser assim, nada vai mudar isso.

Os últimos boatos estão colocando você na Red Bull, e refletindo apenas o que você disse de que não há muita verdade no que essas coisas dizem, então qual das partes destes rumores é verdade?

A red Bull é verdade (risos). A Red Bull é agora minha patrocinadora, mas é claro que o contrato é só para este ano, então tudo pode mudar no próximo ano, mas eu não estou com pressa para decidir nada.

Exatamente, “sem pressa para decidir nada’, você tem visto as noticias de que você tem sorrido mais agora que você esta no rally. Você tem pensado em retornar para a F1?

Bem, é obvio que essa é um categoria que eu fiz por muito tempo, e é claro que eu também a quero. Mas existem mais coisas que eu posso fazer também. Existem várias coisas que desmerecem a F1, tem todo o tipo de coisas inúteis que algumas pessoas não gostam. Tem muito de tudo e muitas pessoas estão lutando por isso, ninguém pode tomar uma decisão, elas realmente não pertencem a F1 e isso estraga as coisas boas lá. É claro que eu tenho que ver o que próximo ano trará. Eu não tenho nada contra, mas eu não tenho atração por ela. As coisas mudam de repente, então esse é motivo pelo qual eu não me preocupo com isso.

Você tem dado milhares de entrevistas, mas se você pudesse fazer uma pergunta para si mesmo. O que você se perguntaria?

Não tem uma pergunta. É claro, têm muitas entrevistas boas, isso depende da categoria e na F1 a maioria das perguntas são as mesmas. É complicado fazer algumas perguntas sobre uma certa coisa. Isso fica mais fácil, porque isso com certeza não se torna um desafio responder as mesmas perguntas.

Créditos: YLE / Fonte e tradução fin-en:: Nicole / Tradução pt: The Iceman Brasil - do Team

YLE: Kimi - Seu filme favorito e sua amizade com Axl

0 comentários

Bem, como eu não sei nadinha de finlandês e o Google Tradutor não me ajudou nada, pedi ajudinha para a querida RaceGirl Arli que me contou do que o artigo publicado no site da YLE se tratava. Resumindo, o artigo finlandês fala sobre Kimi gostar dos filmes finlandeses, sobre a citação de seu nome no CD do Axl, sobre um jogador de bilhar chamado Mika que também tinha o apelido Iceman antes de Kimi e que ele parece mais feliz no Rali.
Vocês podem conferir o artigo no seguinte link (em finlandês) > YLE

Mas uma vez, gostaria de agradecer a Arli!!! Precisando, estou aqui.

Video: Entrevista para a YLE

0 comentários

Comercial da DNA

0 comentários

Kimi Raikkonen na festa “Flower Power” em Bracelona ???

0 comentários
Essa informação é do site El Periodico da Espanha, que afirma a presença do Iceman nessa festa junto com outros amigos e milionários da Europa. Para conferir a matéria em espanhol clique aqui. E para conferir em PDF na edição impressa aqui – mas apenas para assinantes.
Quem também carrega a reputação de ser um bebedor nato é Kimi Raikkonen, embora nunca tenha misturado álcool e direção o que o tornou o Campeão Mundial de F1 2007. – O finlandês voador desembarcou no clube com o estilo de um “skater” por volta da meia noite com: boné de beisebol com a aba virada para trás, blusa branca, calça jeans e tênis. Ele já havia confirmado a sua presença alguns dias para garantir um camarote reservado. Quando o avisaram da festa “flower Power” (o poder da flor em tradução livre), o Homem de gelo (Iceman em inglês, com ele tem tatuado em seu braço) não recusou. Dava na mesma. E a verdade é que uma vez estando lá, ele conferiu: um festival de dançarinas com minúsculas minissaias e dançando como quem se prega o “amor livre”, a decoração do local era com corações, articulações e sinais de paz; daqueles do Lennon e Yoko Ono, do “yellow Submarine” dos Beatles, além de Rolling Stones e Beach Boys...

Poker Face (“cara de pau”)
Se fosse em Helsinque ao invés de Barcelona, ele deveria estar na comemoração da festa da vodka e nem estaria ciente do “flower Power”. Oh! Talvez, quem sabe. Raikkonen, eu devo dizer, não provou nem uma gota (de álcool) e estava acompanhado de quatro amigos. E ele apenas disse uma frase para os jornalistas. Gostou da festa? “Sem fotos”. Você esta de férias por aqui? Poker face. Você vai estar no GP da Espanha de F1 no próximo final de semana em Montmelo? Poker face. “Eu gosto de Barcelo...? ” Tive uma boa noite” Uma hora e meia mais tarde, o chamado de “Iceman” saiu no meio da multidão vestida de flores. E ele quase cruzou com os jogadores de basquete do Barça, Peter Mickeal e Lubos Barton. La dentro a festa continuou....

Créditos: Fernando Immedia – El Periódico / Tradução: The Iceman Brasil - do Team

quarta-feira, maio 05, 2010

Post de nº 200 Uhuuuu

0 comentários
Agradeço as meninas por estarem aqui no blog.
Ultimamente eu ando sem tempo para aparecer por aqui.
O post de hoje é para lembrar que vira e mexe e o nome do Kimi sempre surge nos domingos em que se tem tem fórmula 1.
Além dos boatos que ele vai voltar, o que no fundo é o que eu realmente desejo, mas acho que o Kimi não volta, o porque que ele não volta é muito simples de responder, o Kimi está totalmente mais feliz no WRC.
Sei que eu e a Carolina temos blog's de outros pilotos na F1 e que assistimos as corridas nos domingos, mas o que realmente sinto em escutar o sobrenome Raikkonen é uma emoção que falta palavras.
Eu fiquei emocionada agora de manhã quando fui ver a ficha técnica do Gp da Espanha e me deparei que a melhor volta do circuito é do Kimi correndo pela Ferrari em 2008, o que é muito engraçado, pois foi a penúltima vitória do Kimi pela Ferrari. Quando ele ganhou aquela corrida, achei que veria o Kimi ser Bicampeão da F1, mas a partir dali parece que nada deu certo para o Kimi, e assim foram rolando as coisas.
Espero que ele volte sim para a Fórmula 1.
Meninas obrigado por esses meses que estamos juntas! Vamos chegar ao post 1000 em breve!!!!


Beijokas
Myn